TimeCDT,TemperatureF,Dew PointF,Humidity,Sea Level PressureIn,VisibilityMPH,Wind Direction,Wind SpeedMPH,Gust SpeedMPH,PrecipitationIn,Events,Conditions,WindDirDegrees,DateUTC
12:53 AM,78.1,70.0,76,29.89,10.0,Calm,Calm,-,N/A,,Clear,0,2012-07-03 05:53:00
1:53 AM,78.1,69.1,74,29.89,10.0,South,4.6,-,N/A,,Clear,180,2012-07-03 06:53:00
2:53 AM,78.1,69.1,74,29.88,10.0,SSW,5.8,-,N/A,,Clear,200,2012-07-03 07:53:00
3:53 AM,79.0,68.0,69,29.87,10.0,South,8.1,-,N/A,,Clear,190,2012-07-03 08:53:00
4:53 AM,77.0,68.0,74,29.86,10.0,SSW,6.9,-,N/A,,Clear,200,2012-07-03 09:53:00
5:53 AM,77.0,68.0,74,29.87,10.0,SSW,8.1,-,N/A,,Clear,200,2012-07-03 10:53:00
6:53 AM,78.1,68.0,71,29.88,10.0,SSW,8.1,-,N/A,,Clear,200,2012-07-03 11:53:00
7:53 AM,80.1,69.1,69,29.88,10.0,SSW,6.9,-,N/A,,Clear,200,2012-07-03 12:53:00
8:53 AM,82.9,70.0,65,29.89,10.0,SSW,8.1,-,N/A,,Clear,210,2012-07-03 13:53:00
9:53 AM,84.9,71.1,63,29.89,10.0,SW,10.4,-,N/A,,Clear,220,2012-07-03 14:53:00
10:53 AM,87.1,70.0,57,29.88,10.0,SSW,9.2,-,N/A,,Clear,210,2012-07-03 15:53:00
11:53 AM,89.1,71.1,55,29.88,10.0,SSW,8.1,-,N/A,,Clear,210,2012-07-03 16:53:00
12:53 PM,91.0,71.1,52,29.86,10.0,South,11.5,-,N/A,,Clear,190,2012-07-03 17:53:00
1:53 PM,93.0,71.1,49,29.85,10.0,South,10.4,-,N/A,,Clear,190,2012-07-03 18:53:00
2:53 PM,95.0,71.1,46,29.83,10.0,SSW,11.5,-,N/A,,Clear,200,2012-07-03 19:53:00
3:53 PM,95.0,70.0,44,29.82,10.0,SSW,6.9,-,N/A,,Clear,210,2012-07-03 20:53:00
4:53 PM,95.0,70.0,44,29.81,10.0,SSW,9.2,-,N/A,,Partly Cloudy,200,2012-07-03 21:53:00
5:53 PM,95.0,71.1,46,29.79,10.0,South,6.9,-,N/A,,Partly Cloudy,190,2012-07-03 22:53:00
6:53 PM,93.0,73.0,52,29.78,10.0,South,4.6,-,N/A,,Clear,190,2012-07-03 23:53:00
7:53 PM,90.0,73.9,59,29.77,10.0,South,4.6,-,N/A,,Clear,190,2012-07-04 00:53:00
8:53 PM,86.0,73.4,66,29.81,10.0,South,4.6,-,N/A,,Clear,190,2012-07-04 01:53:00
9:53 PM,82.9,72.0,69,29.80,10.0,South,4.6,-,N/A,,Clear,180,2012-07-04 02:53:00
10:53 PM,81.0,72.0,74,29.81,10.0,South,4.6,-,N/A,,Clear,190,2012-07-04 03:53:00
11:53 PM,81.0,70.0,69,29.82,10.0,SSW,4.6,-,N/A,,Clear,200,2012-07-04 04:53:00